Location: Zagreb
(45.8000°N, 16.0000°E)
Time: 18:58:34
(UTC+01:00)

DX 1 - Pass Details

Date: 04 November 2020
Orbit: 619 x 630 km, 98.5° (Epoch: 01 December)

Event Time Altitude Azimuth Distance (km) Brightness Sun altitude
Rises 05:53:22 0° 183° (S) 2,883 ? -8.7°
Reaches altitude 10° 05:55:39 10° 190° (S) 1,981 ? -8.3°
Maximum altitude 05:59:43 41° 261° (W) 908 ? -7.6°
Drops below altitude 10° 06:03:49 10° 332° (NNW) 1,995 ? -6.9°
Sets 06:06:07 0° 340° (NNW) 2,907 ? -6.6°
